sat.trackr.live / text

‹ back to catalog

ONEWEB-0283

NORAD 49001 · 2021-060AL

PAYLOAD ACTIVE UNKNOWN

§ Identity

Operator
Country
UK
Launch date
2021-07-01
Launch site
VOSTO
Launch vehicle
Mass (kg)
RCS (m²)

Purposes: comms

External: N2YO · Heavens-Above · Gunter

§ Orbital elements

Epoch: 2026-05-25T05:02:45.720096Z

Period
109.37 min
Inclination
87.9103°
Eccentricity
0.0001938
Mean motion
13.16593012 rev/d
Perigee alt
1,196.3 km
Apogee alt
1,199.2 km
Semi-major
7,575.9 km
B*
7.6361e-5
RAAN
233.3416°
Arg perigee
96.3726°
Mean anomaly
263.7625°
Rev number
23,659

§ Raw data

ONEWEB-02831 49001U 21060AL  26145.21025139  .00000042  00000+0  76361-4 0  99962 49001  87.9103 233.3416 0001938  96.3726 263.7625 13.16593012236597

JSON: /api/v1/satellites/49001 · /tle

For live sub-satellite position, see the globe view (requires WebGL).

§ Visibility from observer

Set your observer location to see the next 7 days of passes ≥ 10°. The values pass through the URL so the page stays shareable.

No JS? Fill the form by hand. The geolocation button needs JavaScript.